Temp
13 13 14 13 14 14 13 13 13 13 12 12 12 12 12 12 12 13 13 11 10 10 9 9 10 10 10 10 10 10 10 11 12 13 14 15 15 15 15 15 15 15 15
13 13 13 13 14 13 13 13 13 13 13 13 12 12 12 12 12 12 12 12 10 10 10 9 9 9 9 10 10 10 10 10 11 12 14 14 15 15 15 15 15 15 15
12 12 13 13 14 14 13 13 12 12 13 13 13 12 12 12 12 11 11 12 12 11 10 10 9 9 9 9 9 10 10 10 10 11 13 14 15 15 14 15 15 15 15
12 13 13 13 14 13 13 13 12 13 13 13 13 13 13 12 12 11 11 11 12 12 11 10 9 9 9 9 9 9 10 10 10 11 11 13 14 14 14 14 15 15 14
13 12 13 14 13 12 12 12 12 12 12 11 12 13 13 13 12 12 12 11 11 11 12 11 10 9 9 8 9 9 9 10 10 11 11 12 13 14 14 14 14 15 15
13 12 12 11 12 11 12 10 10 10 10 11 11 11 12 12 12 12 12 11 11 11 10 11 11 11 10 9 9 8 9 9 10 10 11 11 12 13 14 14 14 14 14
14 12 12 12 12 11 11 10 10 11 10 10 10 9 10 11 11 11 12 12 12 11 11 10 10 11 11 10 9 9 9 9 9 10 11 11 11 12 14 14 14 14 14
12 12 12 13 13 13 11 11 11 11 11 11 10 12 11 11 11 11 11 12 11 11 11 10 10 10 10 11 11 9 9 8 8 9 10 11 11 12 13 14 14 14 14
11 10 10 11 11 12 12 11 10 10 11 11 10 12 12 12 13 12 11 11 11 11 10 10 10 10 10 10 10 9 9 9 9 9 9 10 10 11 12 13 14 14 14
10 9 9 9 9 10 11 11 10 9 9 10 10 9 11 12 13 13 12 11 10 10 10 10 10 10 10 10 10 10 9 9 9 9 9 9 10 10 12 13 13 14 14
9 8 8 8 8 8 9 9 9 9 9 9 10 9 9 10 11 12 12 11 11 11 11 10 10 10 10 10 10 10 9 8 9 9 9 9 10 10 12 12 13 14 13
9 8 7 6 6 7 7 7 8 8 8 9 9 8 8 9 10 10 12 12 13 12 11 10 10 10 10 10 10 9 9 8 8 9 9 9 9 10 11 12 13 14 14
6 6 6 5 5 5 5 6 6 7 8 8 8 9 8 8 9 9 10 11 13 13 12 11 10 10 10 10 10 9 8 8 8 8 8 9 9 10 11 12 13 14 14
4 4 4 4 4 3 3 2 3 5 6 7 8 8 8 8 8 9 8 9 11 13 12 11 11 10 10 10 10 9 9 8 8 8 8 9 9 9 10 11 12 13 14
1 1 1 2 2 2 2 2 1 1 2 4 5 6 7 7 7 8 8 8 9 11 13 12 10 10 10 10 9 8 9 9 8 8 8 9 9 9 10 10 11 12 13
0 -0 -0 -0 0 1 1 1 1 1 0 1 1 3 5 6 6 6 6 7 7 8 12 12 11 11 10 10 9 9 9 9 8 8 8 9 9 9 9 10 11 12 13
0 0 0 -0 0 -0 -1 -1 -0 -0 1 1 0 1 2 4 5 5 5 6 6 7 11 12 11 10 9 9 10 9 9 9 9 8 8 8 8 9 9 9 10 11 13
-1 -1 -1 -1 -1 -1 -1 -2 -1 -1 -1 1 1 -0 0 1 4 5 5 6 5 6 9 11 10 10 9 10 10 9 10 10 11 9 8 8 8 9 9 9 10 10 12
-1 -0 -0 -1 -1 -1 -1 -2 -2 -2 -1 -0 0 -1 -1 -0 1 3 5 5 4 5 7 10 11 10 10 10 10 10 10 10 10 9 9 9 8 9 9 9 10 10 11
-0 -0 -1 -1 -1 -2 -2 -2 -2 -2 -2 -1 -0 -0 -1 -1 0 1 4 5 4 3 6 10 10 10 10 10 10 10 10 10 11 10 8 9 8 8 8 8 9 9 10
-2 -2 -2 -2 -1 -2 -2 -2 -2 -2 -2 -2 -1 -0 -1 -1 -1 1 3 5 4 3 5 9 10 10 10 9 10 10 10 10 10 10 10 9 9 8 8 8 8 9 10
-2 -2 -2 -2 -2 -2 -2 -2 -3 -2 -2 -2 -2 -1 -1 -1 -2 -1 1 2 4 4 6 9 10 10 10 10 10 10 11 11 11 10 10 10 9 9 10 9 9 9 10
-2 -1 -1 -2 -2 -2 -2 -2 -2 -2 -3 -2 -2 -1 -1 -1 -2 -1 0 2 3 4 5 8 10 10 10 10 9 10 10 11 11 10 10 9 8 7 7 9 9 9 10
-1 -1 -1 -1 -2 -2 -2 -2 -2 -2 -2 -2 -2 -2 -1 -1 -1 -0 0 1 3 3 5 7 8 9 9 9 9 10 10 10 9 9 9 10 8 7 6 6 7 8 10
-1 -0 -1 -2 -2 -2 -3 -3 -2 -2 -2 -2 -2 -1 -2 -1 -1 -0 1 3 4 3 4 6 7 8 8 7 8 9 10 10 10 10 8 10 6 5 5 6 6 9 10
-1 -0 -1 -2 -2 -2 -3 -3 -2 -1 -1 -1 -2 -1 -2 -1 -0 1 1 4 4 4 5 6 6 6 6 6 7 8 10 10 10 11 9 9 5 6 5 6 6 9 10
Height
859 860 860 859 859 859 859 859 859 860 860 860 860 860 859 858 858 858 859 857 857 856 857 857 856 856 856 855 856 855 854 852 852 851 850 850 851 853 855 857 859 861 863
858 857 857 857 857 857 857 857 856 857 857 857 857 858 857 857 857 857 857 857 855 855 855 855 855 855 855 854 854 854 854 853 852 851 850 849 850 852 855 857 859 860 863
854 855 854 853 853 853 853 854 854 854 854 854 854 855 855 855 855 855 855 855 855 853 853 852 852 853 853 853 852 853 853 853 852 850 850 850 850 852 853 857 859 861 863
849 850 849 848 848 848 849 849 849 850 850 849 850 851 851 851 852 852 853 852 852 852 851 850 850 851 851 851 851 851 851 851 851 850 850 850 850 850 852 856 858 861 863
844 843 843 842 842 843 843 844 845 845 845 847 847 847 847 848 848 849 849 849 849 850 850 848 848 848 849 849 849 849 849 849 849 850 849 849 849 849 851 854 857 860 861
838 837 836 835 835 835 835 838 838 838 841 841 842 842 843 843 844 845 845 845 845 846 847 846 846 845 845 846 846 847 847 847 848 849 849 848 848 848 849 852 854 857 860
830 830 830 829 829 828 828 828 828 831 832 835 837 838 837 839 839 840 840 840 841 841 842 842 843 843 843 843 843 844 845 846 846 846 847 847 846 846 847 849 852 856 858
824 822 822 821 821 820 820 821 821 821 822 825 828 828 829 832 833 833 834 835 835 836 837 838 839 839 840 841 841 841 842 842 844 844 845 846 844 844 844 846 849 853 857
818 817 816 815 814 814 812 813 813 813 813 815 818 819 819 818 820 821 826 829 830 832 833 833 834 835 836 837 838 839 839 839 840 841 842 842 843 842 842 843 842 849 855
813 811 809 808 808 807 806 806 806 806 807 807 809 811 811 812 813 814 820 824 826 827 828 829 829 829 831 832 834 835 835 836 837 838 839 840 840 840 841 842 843 846 849
807 805 803 802 801 800 799 799 798 799 799 801 802 806 809 810 811 813 812 817 820 822 823 824 824 825 826 828 830 831 832 833 834 836 836 838 839 840 840 841 843 842 850
799 798 797 796 796 794 793 792 792 791 792 793 795 798 805 805 805 809 810 810 808 811 817 819 820 821 823 824 826 827 829 830 832 833 834 835 838 838 838 839 841 843 847
795 793 792 791 790 789 787 786 785 785 785 786 788 790 798 800 802 805 807 807 806 806 811 814 817 818 819 821 822 824 825 827 829 830 832 833 835 836 837 838 838 841 841
791 789 787 785 784 785 784 783 781 780 779 779 781 784 787 792 797 801 805 807 805 801 805 810 812 814 816 817 818 820 823 824 825 827 829 830 832 835 836 836 836 838 843
788 785 783 781 779 778 777 778 778 777 775 775 776 777 781 786 791 796 800 804 804 799 796 802 808 810 812 813 815 818 819 820 822 824 825 827 830 833 834 835 836 837 841
783 780 778 776 775 773 772 772 772 773 773 773 773 774 777 780 785 790 795 798 801 802 793 796 801 805 808 810 812 815 817 817 819 821 823 824 827 830 833 834 834 835 839
778 776 773 771 770 768 768 767 767 768 768 769 770 772 774 777 780 785 790 792 795 799 793 794 799 803 807 809 809 813 814 815 816 818 820 822 825 828 831 832 833 833 837
774 772 769 767 765 764 763 762 762 763 764 764 766 768 771 774 776 779 784 787 791 795 792 793 797 801 805 805 806 809 809 812 813 815 818 821 823 826 828 830 832 832 835
772 769 766 764 762 760 758 757 757 757 758 759 761 763 767 771 774 776 779 783 788 792 792 790 793 798 800 802 804 805 807 809 811 812 816 818 821 823 825 827 829 831 832
769 766 763 760 758 756 754 753 752 752 753 754 756 759 763 767 770 773 776 780 783 787 790 788 790 795 797 799 801 802 805 806 808 811 815 817 818 820 822 823 825 827 830
767 762 759 756 753 751 749 747 747 747 748 750 753 755 759 763 766 770 773 775 780 786 786 784 787 790 793 796 797 799 801 804 806 808 811 813 816 818 819 820 822 823 827
765 760 756 752 749 746 743 741 741 742 743 746 749 752 756 759 762 766 768 771 777 780 783 782 784 787 791 793 795 796 796 801 803 805 808 810 813 814 816 818 819 821 825
762 758 754 750 746 742 737 734 733 736 739 742 745 749 752 755 759 762 765 770 774 779 781 781 782 785 789 791 794 796 797 799 799 801 804 806 810 811 813 816 816 819 822
761 756 753 749 745 741 736 732 731 734 737 739 742 746 749 752 754 757 762 767 771 777 780 782 784 785 789 790 793 795 797 799 799 800 801 802 806 808 809 811 812 815 819
761 756 752 748 745 741 738 736 735 735 737 739 742 744 746 748 750 754 759 764 769 775 779 781 784 785 788 791 792 794 796 798 797 798 800 801 803 806 806 807 808 811 816
761 756 752 749 746 743 741 739 737 737 738 739 741 742 743 744 747 751 756 760 767 772 777 782 784 787 790 790 791 793 794 795 795 795 797 799 802 803 805 805 806 808 813
Wind_Speed
8 8 8 8 8 7 7 6 6 5 5 4 3 3 2 2 3 4 4 8 5 5 3 4 4 5 5 5 4 6 7 5 4 4 3 9 13 15 15 16 15 14 15
11 11 11 11 12 11 10 10 9 9 9 8 7 6 5 5 5 5 5 6 5 5 5 3 4 4 6 5 6 5 6 7 5 5 6 4 11 15 16 16 15 14 15
15 16 15 15 16 15 14 13 13 12 12 10 10 9 8 7 7 6 7 7 7 8 7 6 4 5 5 6 6 6 6 6 7 5 6 4 7 17 17 18 16 15 15
19 19 19 20 20 18 18 17 16 15 15 14 13 13 12 11 10 9 8 8 8 8 10 8 8 6 5 5 6 6 7 7 6 6 5 6 7 11 18 18 17 16 16
20 22 21 23 22 21 20 19 19 17 16 15 16 16 15 15 13 12 11 10 10 10 10 10 11 10 9 7 7 7 7 7 7 6 6 5 5 8 19 20 20 18 17
22 23 24 26 27 24 29 26 27 21 23 21 18 15 19 18 16 15 14 13 11 11 12 12 11 10 10 10 9 7 8 7 7 7 5 5 6 8 16 23 23 21 19
27 26 24 23 23 24 26 26 28 28 25 24 19 19 23 17 19 19 18 16 14 13 12 12 11 11 11 11 11 10 8 8 7 8 6 6 7 8 12 25 25 24 21
26 24 24 26 27 28 28 30 30 28 30 27 21 23 7 17 20 21 22 20 18 16 15 15 14 14 14 13 11 11 11 9 8 7 8 6 7 8 13 18 26 26 23
18 19 21 23 25 27 29 28 30 32 28 28 30 20 6 8 17 24 20 19 17 16 16 16 17 18 17 17 14 13 14 11 11 10 9 8 6 9 12 12 21 29 24
21 19 18 18 20 23 27 28 28 29 30 28 23 31 27 15 7 7 13 13 14 14 14 13 13 15 17 17 16 15 12 12 11 10 14 9 8 9 10 10 13 28 26
19 17 15 16 17 19 22 25 27 27 27 27 27 17 22 24 23 15 11 11 12 13 13 13 10 11 14 17 16 15 15 14 11 12 14 15 13 9 9 10 11 25 28
23 22 20 19 20 22 22 24 24 27 29 28 29 18 24 20 19 18 12 18 19 12 14 15 12 10 12 14 16 14 13 14 13 12 10 19 13 7 11 8 11 28 29
23 21 18 18 19 20 23 25 26 28 28 28 28 27 29 22 19 18 19 16 14 18 15 14 15 13 12 14 15 17 16 16 14 14 11 14 17 11 10 9 10 24 30
20 19 19 20 19 19 19 20 21 24 27 30 30 26 24 25 24 23 18 18 9 16 14 15 14 15 14 14 14 15 13 16 15 15 13 12 19 15 9 11 9 19 30
19 18 18 19 19 19 19 19 19 19 13 13 19 27 28 26 23 24 24 23 21 11 10 16 16 13 12 12 15 14 15 15 17 15 14 14 20 18 13 12 11 16 27
19 17 16 16 17 17 17 18 19 17 18 19 12 12 23 25 24 23 24 24 24 20 10 11 14 13 12 12 12 13 15 14 15 16 15 15 20 19 16 12 11 17 28
17 17 16 17 17 15 16 18 19 18 18 15 14 17 13 16 26 23 22 23 22 24 16 13 10 15 12 11 11 14 14 14 14 18 15 16 19 19 17 15 14 15 28
15 15 15 15 14 16 17 17 18 20 19 19 18 15 20 17 17 22 22 20 22 21 18 15 13 12 15 13 12 13 13 15 14 19 16 15 18 18 19 19 18 15 21
14 15 15 14 15 15 15 15 17 19 21 18 16 16 15 20 19 18 21 18 20 19 20 18 15 14 15 12 12 13 14 13 13 16 16 16 18 17 17 17 18 18 20
15 16 15 14 15 15 15 15 15 17 19 17 17 17 17 17 20 20 21 22 18 19 22 19 17 16 14 14 13 14 13 13 14 13 15 15 16 16 17 16 18 18 20
14 17 16 15 14 15 18 18 16 15 17 19 16 17 17 17 18 23 22 24 20 23 18 21 18 16 18 14 15 16 16 16 13 15 15 15 15 15 16 18 18 20 22
15 13 13 13 14 17 18 17 17 17 16 19 20 17 17 17 18 22 28 20 23 24 21 22 19 17 16 14 14 12 13 12 12 14 15 12 12 12 13 14 18 20 22
15 15 14 13 13 15 17 12 14 19 16 18 16 17 17 15 18 19 29 22 22 28 18 17 19 18 16 16 13 11 8 10 10 11 16 12 9 9 17 13 16 21 24
14 14 12 13 13 13 12 6 4 11 12 14 17 16 16 16 17 21 25 21 22 25 18 11 14 15 13 17 15 15 12 10 7 6 8 5 7 9 13 16 18 22 25
14 13 12 12 11 11 10 6 3 7 8 10 12 12 14 16 18 25 25 26 23 21 20 14 10 13 11 12 13 10 11 13 10 8 8 7 5 6 10 14 18 23 28
12 13 13 11 9 7 9 6 4 6 6 6 6 10 8 14 20 28 24 28 24 23 20 15 12 10 12 12 16 11 8 12 9 8 9 10 7 8 3 9 12 24 27
Wind_Direction
241 243 244 243 241 236 233 228 225 230 236 234 238 248 254 254 259 265 272 283 267 266 293 323 333 332 330 305 321 337 352 340 290 283 265 191 197 196 196 188 180 172 172
249 249 247 248 247 243 240 235 233 235 237 237 240 240 245 257 264 264 267 275 291 271 271 286 310 313 316 315 294 304 323 338 321 292 251 221 196 193 197 195 187 177 177
250 251 254 253 252 246 243 242 239 240 242 240 242 238 243 249 250 251 255 258 269 284 276 276 284 299 292 302 311 291 297 312 331 312 275 241 198 197 203 200 192 184 181
250 251 254 255 255 249 245 241 239 240 243 243 245 245 248 246 244 245 250 253 258 260 276 278 275 280 285 282 294 302 288 291 305 321 296 251 231 198 199 201 197 192 186
257 253 253 259 254 254 251 247 242 242 246 244 245 250 250 251 246 247 246 248 250 253 258 263 276 271 271 271 278 284 294 284 281 296 302 278 253 222 201 196 203 196 189
260 256 256 253 249 250 245 244 241 244 258 238 243 249 256 249 246 247 249 249 249 252 255 253 255 267 270 266 269 272 269 282 274 269 289 300 257 226 203 201 203 199 193
265 260 254 256 253 251 248 239 237 245 226 236 234 236 240 248 246 247 248 245 247 251 251 246 247 248 257 270 268 260 261 263 276 256 262 275 278 245 205 200 206 203 196
264 261 261 261 261 259 255 249 247 239 235 228 220 235 234 233 243 237 246 243 245 249 247 245 248 247 249 251 256 256 254 253 259 253 247 269 283 259 216 193 207 202 197
262 263 262 262 262 260 261 259 250 241 238 231 220 225 214 226 229 223 222 237 241 241 245 250 252 250 248 246 247 256 253 250 249 243 237 246 251 271 234 210 209 192 194
271 266 262 260 259 259 261 260 257 249 241 240 230 233 235 246 257 218 212 217 232 242 243 245 257 249 239 239 238 239 245 242 252 240 227 229 241 251 241 216 174 197 194
269 266 264 266 266 264 262 259 257 255 248 245 236 215 235 236 235 245 251 192 211 234 235 240 258 245 233 231 234 240 240 238 240 232 228 220 230 253 236 231 203 194 200
272 269 266 266 269 266 261 258 257 254 250 245 239 230 232 227 224 223 235 250 258 218 229 241 242 242 230 230 230 235 237 229 232 229 234 218 218 211 219 231 209 198 198
277 274 273 274 275 275 270 258 252 250 249 244 238 225 231 237 229 226 239 247 244 237 238 239 243 238 232 230 233 233 239 229 228 222 228 219 212 216 209 222 191 187 199
287 285 278 271 267 269 270 267 264 253 247 244 240 231 229 225 227 237 243 251 237 243 235 238 232 232 234 235 234 227 225 230 222 219 225 222 212 212 209 219 206 192 201
289 282 278 274 269 265 258 255 258 264 266 258 247 239 230 224 226 235 233 236 247 237 220 223 232 219 230 227 227 226 225 226 219 218 220 225 209 211 210 222 213 193 185
290 285 280 275 272 270 262 253 250 247 248 245 245 235 232 229 227 230 229 227 232 248 241 226 204 218 214 220 218 216 218 218 219 212 214 218 202 207 218 228 222 197 200
295 287 283 277 270 266 267 261 252 247 243 238 232 228 231 224 220 213 221 217 218 240 229 226 220 204 213 221 204 211 212 211 216 205 206 204 200 209 218 232 233 204 188
315 309 300 292 285 275 267 261 261 241 239 240 231 220 223 234 218 212 213 213 203 226 228 219 194 211 215 210 216 205 211 211 209 203 200 200 205 213 227 236 231 219 191
314 307 297 292 289 283 274 262 252 248 242 233 226 210 210 217 227 216 203 203 205 219 238 208 208 209 204 209 200 204 199 204 203 191 200 204 207 213 223 227 227 217 200
320 317 306 296 290 285 277 269 254 242 243 221 223 211 214 216 216 213 208 205 200 209 233 203 211 197 206 201 196 192 189 193 195 193 199 207 209 216 227 230 228 222 212
324 322 307 296 290 287 285 274 256 243 233 223 215 215 217 216 216 211 213 205 197 203 229 200 204 198 203 188 196 199 186 192 195 194 196 206 214 223 230 228 226 223 212
330 329 327 312 307 307 299 277 254 242 233 227 218 209 212 212 217 216 214 216 202 188 214 200 199 202 202 202 196 206 195 189 190 202 201 196 205 211 216 223 225 222 211
329 328 331 334 322 328 325 299 250 230 223 222 211 205 208 213 216 214 212 207 204 198 207 209 202 201 190 201 193 187 200 223 200 193 190 175 201 217 218 218 220 224 211
340 339 342 344 343 351 358 351 171 195 209 209 205 199 205 221 210 204 202 199 189 197 215 217 214 202 202 194 195 193 194 214 197 173 203 195 196 214 228 227 218 214 206
343 340 348 352 351 8 18 39 122 168 181 188 190 195 211 217 217 202 189 190 192 189 209 221 238 191 189 184 187 181 193 206 211 201 201 243 174 194 219 227 227 206 195
339 343 352 357 12 26 33 48 66 128 146 171 181 193 223 207 196 190 188 179 173 180 179 182 183 190 202 203 189 194 204 212 226 200 201 205 171 172 179 206 206 196 196